Station Historical Data
Daily Summary for February 3, 2017 Units:  Metric    English   Both
« Previous Day
Next Day »
Daily Weekly Monthly Yearly Custom
  High: Low: Average:
Temperature: 9.4 °C 7.8 °C 8.5 °C
Dew Point: 8.6 °C 7.1 °C 7.7 °C
Humidity: 95 % 94 % 94 %
Wind Speed: 43.5 km/h 0 km/h 14.5 km/h
Wind Gust: 54.7 km/h - -
Wind:- - South
Pressure: 1019.5 hPa 1010.7 hPa -
Precipitation: 55.63 mm    
Historical Graphs
 
 
Tabular Data for February 3, 2017
Time Temperature Dew Point Pressure Wind Wind Speed Wind Gust Humidity Rainfall Rate (Hourly) solar
00:01 9.3 °C 8.3 °C 1016.1 hPa SSE 20.9 km/h 25.7 km/h 94 % 0 mm 0.00 W/m2
00:06 9.3 °C 8.3 °C 1015.8 hPa SE 8 km/h 30.6 km/h 94 % 0 mm 0.00 W/m2
00:11 9.2 °C 8.3 °C 1015.8 hPa SSE 17.7 km/h 25.7 km/h 94 % 0 mm 0.00 W/m2
00:16 9.2 °C 8.3 °C 1015.8 hPa Calm   33.8 km/h 94 % 0 mm 0.00 W/m2
00:21 9.2 °C 8.3 °C 1015.5 hPa SSE 20.9 km/h 25.7 km/h 94 % 0 mm 0.00 W/m2
00:26 9.2 °C 8.3 °C 1015.5 hPa SE 22.5 km/h 27.4 km/h 94 % 0 mm 0.00 W/m2
00:31 9.2 °C 8.3 °C 1015.5 hPa SE 19.3 km/h 32.2 km/h 94 % 0 mm 0.00 W/m2
00:36 9.2 °C 8.3 °C 1015.5 hPa SSE 14.5 km/h 32.2 km/h 94 % 0 mm 0.00 W/m2
00:41 9.2 °C 8.3 °C 1015.5 hPa SE 12.9 km/h 12.9 km/h 94 % 0 mm 0.00 W/m2
00:46 9.3 °C 8.3 °C 1015.1 hPa ESE 12.9 km/h 30.6 km/h 94 % 0 mm 0.00 W/m2
00:51 9.3 °C 8.3 °C 1015.1 hPa SE 6.4 km/h 33.8 km/h 94 % 0 mm 0.00 W/m2
00:56 9.3 °C 8.3 °C 1015.1 hPa SSE 17.7 km/h 27.4 km/h 94 % 0 mm 0.00 W/m2
01:01 9.3 °C 8.3 °C 1015.1 hPa SSE 16.1 km/h 25.7 km/h 94 % 0 mm 0.00 W/m2
01:06 9.3 °C 8.3 °C 1015.1 hPa SE 19.3 km/h 24.1 km/h 94 % 0 mm 0.00 W/m2
01:11 9.3 °C 8.3 °C 1015.1 hPa SE 6.4 km/h 20.9 km/h 94 % 0 mm 0.00 W/m2
01:16 9.2 °C 8.3 °C 1014.8 hPa SSE 9.7 km/h 25.7 km/h 94 % 0 mm 0.00 W/m2
01:21 9.2 °C 8.3 °C 1014.8 hPa ESE 17.7 km/h 17.7 km/h 94 % 0 mm 0.00 W/m2
01:26 9.2 °C 8.3 °C 1014.8 hPa SE 8 km/h 24.1 km/h 94 % 0 mm 0.00 W/m2
01:31 9.2 °C 8.3 °C 1014.4 hPa SE 29 km/h 29 km/h 94 % 0 mm 0.00 W/m2
01:36 9.1 °C 8.2 °C 1014.4 hPa SE 11.3 km/h 29 km/h 94 % 0 mm 0.00 W/m2
01:41 9.1 °C 8.2 °C 1014.4 hPa SSE 12.9 km/h 29 km/h 94 % 0 mm 0.00 W/m2
01:46 9.1 °C 8.2 °C 1014.4 hPa SSE 19.3 km/h 27.4 km/h 94 % 0 mm 0.00 W/m2
01:51 9.1 °C 8.2 °C 1014.4 hPa SSE 9.7 km/h 33.8 km/h 94 % 0 mm 0.00 W/m2
01:56 9.1 °C 8.2 °C 1014.1 hPa Calm   29 km/h 94 % 0 mm 0.00 W/m2
02:01 9.1 °C 8.2 °C 1014.4 hPa SSE 14.5 km/h 32.2 km/h 94 % 0 mm 0.00 W/m2
02:06 9.2 °C 8.3 °C 1014.1 hPa SSE 19.3 km/h 29 km/h 94 % 0 mm 0.00 W/m2
02:11 9.2 °C 8.3 °C 1014.4 hPa SSE 9.7 km/h 27.4 km/h 94 % 0 mm 0.00 W/m2
02:16 9.2 °C 8.3 °C 1014.1 hPa South 14.5 km/h 30.6 km/h 94 % 0 mm 0.00 W/m2
02:21 9.2 °C 8.3 °C 1014.1 hPa SSE 20.9 km/h 33.8 km/h 94 % 0 mm 0.00 W/m2
02:26 9.2 °C 8.3 °C 1014.1 hPa SE 14.5 km/h 25.7 km/h 94 % 0 mm 0.00 W/m2
02:31 9.2 °C 8.3 °C 1014.1 hPa SE 14.5 km/h 22.5 km/h 94 % 0 mm 0.00 W/m2
02:36 9.2 °C 8.3 °C 1013.8 hPa South 19.3 km/h 32.2 km/h 94 % 0 mm 0.00 W/m2
02:41 9.2 °C 8.3 °C 1013.8 hPa SE 19.3 km/h 19.3 km/h 94 % 0 mm 0.00 W/m2
02:46 9.3 °C 8.3 °C 1013.8 hPa Calm     94 % 0 mm 0.00 W/m2
02:51 9.3 °C 8.3 °C 1013.8 hPa SSE 11.3 km/h 27.4 km/h 94 % 0 mm 0.00 W/m2
02:56 9.3 °C 8.3 °C 1013.8 hPa SSE 6.4 km/h 27.4 km/h 94 % 0 mm 0.00 W/m2
03:01 9.3 °C 8.3 °C 1013.8 hPa SE 17.7 km/h 29 km/h 94 % 0 mm 0.00 W/m2
03:06 9.3 °C 8.3 °C 1013.8 hPa Calm   33.8 km/h 94 % 0 mm 0.00 W/m2
03:11 9.3 °C 8.3 °C 1013.8 hPa SE 14.5 km/h 37 km/h 94 % 0 mm 0.00 W/m2
03:16 9.3 °C 8.4 °C 1013.4 hPa South 19.3 km/h 38.6 km/h 94 % 0 mm 0.00 W/m2
03:21 9.3 °C 8.6 °C 1013.4 hPa South 19.3 km/h 30.6 km/h 95 % 0 mm 0.00 W/m2
03:26 9.3 °C 8.6 °C 1013.4 hPa South 14.5 km/h 35.4 km/h 95 % 0 mm 0.00 W/m2
03:31 9.4 °C 8.4 °C 1013.4 hPa South 22.5 km/h 22.5 km/h 94 % 0 mm 0.00 W/m2
03:36 9.4 °C 8.6 °C 1013.1 hPa SSE 20.9 km/h 40.2 km/h 95 % 0 mm 0.00 W/m2
03:41 9.4 °C 8.6 °C 1013.1 hPa SSE 8 km/h 37 km/h 95 % 0 mm 0.00 W/m2
03:46 9.4 °C 8.6 °C 1013.1 hPa SE 11.3 km/h 11.3 km/h 95 % 0 mm 0.00 W/m2
03:51 9.4 °C 8.4 °C 1013.1 hPa SSE 16.1 km/h 45.1 km/h 94 % 0 mm 0.00 W/m2
03:56 9.3 °C 8.4 °C 1013.1 hPa South 24.1 km/h 33.8 km/h 94 % 0 mm 0.00 W/m2
04:01 9.3 °C 8.6 °C 1012.8 hPa South 27.4 km/h 27.4 km/h 95 % 0 mm 0.00 W/m2
04:06 9.3 °C 8.4 °C 1012.8 hPa SSW 19.3 km/h 25.7 km/h 94 % 0 mm 0.00 W/m2
04:11 9.3 °C 8.4 °C 1012.8 hPa ESE 25.7 km/h 38.6 km/h 94 % 0 mm 0.00 W/m2
04:16 9.3 °C 8.4 °C 1012.8 hPa SE 3.2 km/h 38.6 km/h 94 % 0 mm 0.00 W/m2
04:21 9.3 °C 8.4 °C 1012.8 hPa South 14.5 km/h 32.2 km/h 94 % 0 mm 0.00 W/m2
04:26 9.3 °C 8.4 °C 1012.8 hPa SSE 14.5 km/h 43.5 km/h 94 % 0 mm 0.00 W/m2
04:31 9.3 °C 8.4 °C 1012.4 hPa SSE 16.1 km/h 40.2 km/h 94 % 0 mm 0.00 W/m2
04:36 9.3 °C 8.4 °C 1012.4 hPa SSE 24.1 km/h 35.4 km/h 94 % 0 mm 0.00 W/m2
04:41 9.3 °C 8.4 °C 1012.8 hPa SSE 12.9 km/h 35.4 km/h 94 % 0 mm 0.00 W/m2
04:46 9.3 °C 8.4 °C 1012.8 hPa SSE 17.7 km/h 46.7 km/h 94 % 0 mm 0.00 W/m2
04:51 9.3 °C 8.4 °C 1012.4 hPa SSE 20.9 km/h 46.7 km/h 94 % 0 mm 0.00 W/m2
04:56 9.3 °C 8.4 °C 1012.4 hPa SE 32.2 km/h 40.2 km/h 94 % 0 mm 0.00 W/m2
05:01 9.3 °C 8.3 °C 1012.4 hPa South 27.4 km/h 46.7 km/h 94 % 0 mm 0.00 W/m2
05:06 9.3 °C 8.3 °C 1012.1 hPa SSE 16.1 km/h 43.5 km/h 94 % 0 mm 0.00 W/m2
05:11 9.3 °C 8.3 °C 1012.4 hPa SSW 24.1 km/h 32.2 km/h 94 % 0 mm 0.00 W/m2
05:16 9.3 °C 8.4 °C 1012.4 hPa SSW 19.3 km/h 38.6 km/h 94 % 0 mm 0.00 W/m2
05:21 9.3 °C 8.4 °C 1012.4 hPa South 22.5 km/h 25.7 km/h 94 % 9.91 mm 0.00 W/m2
05:26 9.3 °C 8.3 °C 1012.4 hPa SSE 17.7 km/h 17.7 km/h 94 % 5.33 mm 0.00 W/m2
05:31 9.3 °C 8.3 °C 1012.4 hPa SSE 20.9 km/h 20.9 km/h 94 % 4.06 mm 0.00 W/m2
05:36 9.2 °C 8.3 °C 1012.4 hPa SE 16.1 km/h 16.1 km/h 94 % 3.81 mm 0.00 W/m2
05:41 9.2 °C 8.3 °C 1012.1 hPa SSW 9.7 km/h 16.1 km/h 94 % 5.33 mm 0.00 W/m2
05:46 9.2 °C 8.3 °C 1012.1 hPa SSE 24.1 km/h 33.8 km/h 94 % 8.64 mm 0.00 W/m2
05:51 9.1 °C 8.2 °C 1011.7 hPa South 16.1 km/h 16.1 km/h 94 % 9.14 mm 0.00 W/m2
05:56 9.1 °C 8.2 °C 1012.1 hPa SSE 22.5 km/h 25.7 km/h 94 % 5.59 mm 0.00 W/m2
06:01 9.1 °C 8.2 °C 1011.7 hPa South 11.3 km/h 11.3 km/h 94 % 5.33 mm 0.00 W/m2
06:06 9.1 °C 8.2 °C 1011.7 hPa South 12.9 km/h 25.7 km/h 94 % 8.89 mm 0.00 W/m2
06:11 9 °C 8.1 °C 1012.1 hPa SSW 14.5 km/h 37 km/h 94 % 5.84 mm 0.00 W/m2
06:16 8.9 °C 8.1 °C 1012.1 hPa SSE 11.3 km/h 32.2 km/h 94 % 4.83 mm 0.00 W/m2
06:21 8.8 °C 7.9 °C 1011.7 hPa South 19.3 km/h 32.2 km/h 94 % 10.16 mm 0.00 W/m2
06:26 8.8 °C 7.9 °C 1011.7 hPa SSE 17.7 km/h 17.7 km/h 94 % 6.35 mm 0.00 W/m2
06:31 8.7 °C 7.8 °C 1011.4 hPa SSE 11.3 km/h 11.3 km/h 94 % 9.65 mm 0.00 W/m2
06:36 8.7 °C 7.8 °C 1011.4 hPa South 8 km/h 27.4 km/h 94 % 9.14 mm 0.00 W/m2
06:41 8.6 °C 7.7 °C 1011.4 hPa SSE 11.3 km/h 29 km/h 94 % 13.97 mm 0.00 W/m2
06:46 8.6 °C 7.7 °C 1011.4 hPa SSE 12.9 km/h 27.4 km/h 94 % 3.81 mm 0.00 W/m2
06:51 8.6 °C 7.7 °C 1011.4 hPa South 12.9 km/h 22.5 km/h 94 % 6.1 mm 0.00 W/m2
06:56 8.6 °C 7.7 °C 1011.4 hPa SSW 20.9 km/h 27.4 km/h 94 % 6.86 mm 0.00 W/m2
07:01 8.6 °C 7.7 °C 1011.4 hPa SSE 14.5 km/h 25.7 km/h 94 % 6.86 mm 0.00 W/m2
07:06 8.6 °C 7.7 °C 1011.1 hPa South 27.4 km/h 32.2 km/h 94 % 9.91 mm 0.00 W/m2
07:11 8.6 °C 7.7 °C 1011.1 hPa SSE 16.1 km/h 37 km/h 94 % 9.14 mm 0.00 W/m2
07:16 8.6 °C 7.7 °C 1011.1 hPa South 9.7 km/h 25.7 km/h 94 % 9.14 mm 0.00 W/m2
07:21 8.7 °C 7.8 °C 1010.7 hPa Calm   24.1 km/h 94 % 10.92 mm 0.00 W/m2
07:26 8.7 °C 7.8 °C 1011.1 hPa SSW 4.8 km/h 22.5 km/h 94 % 20.07 mm 0.00 W/m2
07:31 8.7 °C 7.8 °C 1011.4 hPa SSW 11.3 km/h 11.3 km/h 94 % 19.81 mm 0.00 W/m2
07:36 8.7 °C 7.8 °C 1011.4 hPa Calm   24.1 km/h 94 % 41.91 mm 0.00 W/m2
07:41 8.5 °C 7.7 °C 1011.4 hPa SSW 8 km/h 27.4 km/h 95 % 10.67 mm 0.00 W/m2
07:46 8.4 °C 7.5 °C 1011.7 hPa SSE 11.3 km/h 29 km/h 94 % 5.33 mm 0.00 W/m2
07:51 8.4 °C 7.6 °C 1012.1 hPa SSW 16.1 km/h 41.8 km/h 94 % 3.05 mm 0.00 W/m2
07:56 8.6 °C 7.7 °C 1012.1 hPa SSW 25.7 km/h 54.7 km/h 94 % 4.83 mm 0.00 W/m2
08:01 8.6 °C 7.7 °C 1012.4 hPa SSW 9.7 km/h 33.8 km/h 94 % 12.7 mm 0.00 W/m2
08:06 8.6 °C 7.7 °C 1012.4 hPa SW 20.9 km/h 51.5 km/h 94 % 4.83 mm 0.00 W/m2
08:11 8.6 °C 7.7 °C 1012.4 hPa South 20.9 km/h 38.6 km/h 94 % 2.54 mm 0.00 W/m2
08:16 8.6 °C 7.7 °C 1012.4 hPa South 11.3 km/h 41.8 km/h 94 % 2.03 mm 12.00 W/m2
08:21 8.6 °C 7.7 °C 1012.4 hPa SSW 14.5 km/h 30.6 km/h 94 % 1.27 mm 16.00 W/m2
08:26 8.6 °C 7.7 °C 1012.8 hPa South 16.1 km/h 35.4 km/h 94 % 1.27 mm 0.00 W/m2
08:31 8.6 °C 7.7 °C 1012.8 hPa South 19.3 km/h 38.6 km/h 94 % 1.27 mm 0.00 W/m2
08:36 8.6 °C 7.7 °C 1012.8 hPa SSE 11.3 km/h 41.8 km/h 94 % 1.52 mm 0.00 W/m2
08:41 8.6 °C 7.7 °C 1012.8 hPa SSW 14.5 km/h 22.5 km/h 94 % 7.62 mm 9.00 W/m2
08:46 8.6 °C 7.7 °C 1012.4 hPa SSW 14.5 km/h 27.4 km/h 94 % 3.81 mm 18.00 W/m2
08:51 8.6 °C 7.7 °C 1012.4 hPa SE 6.4 km/h 22.5 km/h 94 % 2.03 mm 11.00 W/m2
08:56 8.6 °C 7.7 °C 1012.8 hPa South 12.9 km/h 22.5 km/h 94 % 7.62 mm 11.00 W/m2
09:01 8.6 °C 7.7 °C 1012.4 hPa South 14.5 km/h 20.9 km/h 94 % 11.43 mm 19.00 W/m2
09:06 8.5 °C 7.6 °C 1012.8 hPa SSE 11.3 km/h 17.7 km/h 94 % 9.65 mm 40.00 W/m2
09:11 8.5 °C 7.6 °C 1012.4 hPa South 14.5 km/h 32.2 km/h 94 % 4.32 mm 39.00 W/m2
09:16 8.5 °C 7.6 °C 1012.4 hPa South 24.1 km/h 29 km/h 94 % 1.78 mm 12.00 W/m2
09:21 8.5 °C 7.6 °C 1012.4 hPa Calm   37 km/h 94 % 1.78 mm 21.00 W/m2
09:26 8.6 °C 7.7 °C 1012.8 hPa SSE 24.1 km/h 35.4 km/h 94 % 10.41 mm 47.00 W/m2
09:31 8.6 °C 7.7 °C 1012.8 hPa SSW 17.7 km/h 30.6 km/h 94 % 3.05 mm 79.00 W/m2
09:36 8.7 °C 7.8 °C 1012.8 hPa SSW 17.7 km/h 38.6 km/h 94 % 2.54 mm 32.00 W/m2
09:41 8.7 °C 7.8 °C 1013.1 hPa WSW 12.9 km/h 38.6 km/h 94 % 1.78 mm 26.00 W/m2
09:46 8.8 °C 7.9 °C 1013.1 hPa SSW 25.7 km/h 49.9 km/h 94 % 1.02 mm 28.00 W/m2
09:51 8.8 °C 7.9 °C 1013.1 hPa SSW 9.7 km/h 40.2 km/h 94 % 10.41 mm 25.00 W/m2
09:56 8.9 °C 8.1 °C 1013.4 hPa SSW 19.3 km/h 40.2 km/h 95 % 4.06 mm 39.00 W/m2
10:01 8.9 °C 8.2 °C 1013.4 hPa SSW 29 km/h 37 km/h 95 % 1.78 mm 28.00 W/m2
10:06 8.9 °C 8.1 °C 1013.8 hPa SSW 20.9 km/h 35.4 km/h 95 % 1.02 mm 14.00 W/m2
10:11 8.9 °C 8.1 °C 1013.8 hPa WSW 43.5 km/h 54.7 km/h 95 % 0 mm 14.00 W/m2
10:16 8.8 °C 7.9 °C 1014.1 hPa WSW 14.5 km/h 40.2 km/h 94 % 3.56 mm 19.00 W/m2
10:21 8.7 °C 7.8 °C 1014.4 hPa SW 12.9 km/h 51.5 km/h 94 % 1.52 mm 46.00 W/m2
10:26 8.6 °C 7.8 °C 1014.8 hPa SW 33.8 km/h 37 km/h 95 % 1.02 mm 141.00 W/m2
10:31 8.3 °C 7.4 °C 1014.8 hPa WSW 19.3 km/h 41.8 km/h 94 % 0 mm 178.00 W/m2
10:36 8.2 °C 7.5 °C 1015.1 hPa SW 16.1 km/h 38.6 km/h 95 % 0 mm 158.00 W/m2
10:41 8.1 °C 7.2 °C 1015.1 hPa SW 24.1 km/h 32.2 km/h 94 % 0 mm 90.00 W/m2
10:46 8.1 °C 7.2 °C 1015.1 hPa Calm   37 km/h 94 % 0 mm 146.00 W/m2
10:51 8.1 °C 7.2 °C 1015.1 hPa South 19.3 km/h 38.6 km/h 94 % 0 mm 183.00 W/m2
10:56 8.1 °C 7.2 °C 1015.1 hPa WSW 19.3 km/h 37 km/h 94 % 0 mm 98.00 W/m2
11:01 8.2 °C 7.3 °C 1015.1 hPa Calm   22.5 km/h 94 % 0 mm 98.00 W/m2
11:06 8.2 °C 7.3 °C 1015.1 hPa South 11.3 km/h 27.4 km/h 94 % 0 mm 109.00 W/m2
11:11 8.2 °C 7.5 °C 1015.5 hPa SSW 12.9 km/h 45.1 km/h 95 % 0 mm 149.00 W/m2
11:16 8.2 °C 7.5 °C 1015.1 hPa SSW 22.5 km/h 33.8 km/h 95 % 0 mm 121.00 W/m2
11:21 8.2 °C 7.4 °C 1015.1 hPa SSE 20.9 km/h 25.7 km/h 95 % 0 mm 114.00 W/m2
11:26 8.2 °C 7.3 °C 1015.1 hPa Calm   25.7 km/h 94 % 0 mm 214.00 W/m2
11:31 8.2 °C 7.4 °C 1015.1 hPa SSW 9.7 km/h 27.4 km/h 95 % 0 mm 70.00 W/m2
11:36 8.2 °C 7.3 °C 1015.1 hPa South 9.7 km/h 20.9 km/h 94 % 0 mm 37.00 W/m2
11:41 8.2 °C 7.3 °C 1015.1 hPa SSW 4.8 km/h 20.9 km/h 94 % 0 mm 39.00 W/m2
11:46 8.2 °C 7.3 °C 1015.1 hPa SSE 8 km/h 25.7 km/h 94 % 0 mm 72.00 W/m2
11:51 8.2 °C 7.4 °C 1015.1 hPa SSE 3.2 km/h 20.9 km/h 95 % 0 mm 169.00 W/m2
11:56 8.2 °C 7.5 °C 1015.1 hPa SSW 9.7 km/h 19.3 km/h 95 % 0 mm 54.00 W/m2
12:01 8.3 °C 7.5 °C 1014.8 hPa Calm   22.5 km/h 95 % 0 mm 60.00 W/m2
12:06 8.3 °C 7.5 °C 1014.8 hPa SW 6.4 km/h 19.3 km/h 95 % 0 mm 49.00 W/m2
12:11 8.3 °C 7.5 °C 1014.8 hPa Calm   24.1 km/h 95 % 0 mm 25.00 W/m2
12:16 8.3 °C 7.5 °C 1014.8 hPa Calm   24.1 km/h 95 % 0 mm 39.00 W/m2
12:21 8.3 °C 7.5 °C 1014.8 hPa SSW 19.3 km/h 29 km/h 95 % 0 mm 46.00 W/m2
12:26 8.3 °C 7.5 °C 1014.4 hPa SSW 6.4 km/h 24.1 km/h 95 % 0 mm 116.00 W/m2
12:31 8.3 °C 7.5 °C 1014.4 hPa SSW 19.3 km/h 32.2 km/h 95 % 0 mm 95.00 W/m2
12:36 8.3 °C 7.5 °C 1014.4 hPa SSW 16.1 km/h 20.9 km/h 95 % 0 mm 46.00 W/m2
12:41 8.3 °C 7.6 °C 1014.4 hPa South 19.3 km/h 22.5 km/h 95 % 0 mm 46.00 W/m2
12:46 8.3 °C 7.6 °C 1014.1 hPa SSW 14.5 km/h 20.9 km/h 95 % 0 mm 25.00 W/m2
12:51 8.3 °C 7.5 °C 1014.1 hPa SSW 11.3 km/h 29 km/h 95 % 0 mm 46.00 W/m2
12:56 8.2 °C 7.5 °C 1014.1 hPa SSE 17.7 km/h 27.4 km/h 95 % 0 mm 107.00 W/m2
13:01 8.1 °C 7.2 °C 1013.8 hPa South 17.7 km/h 24.1 km/h 94 % 0 mm 88.00 W/m2
13:06 8.1 °C 7.2 °C 1013.8 hPa South 14.5 km/h 33.8 km/h 94 % 0 mm 116.00 W/m2
13:11 8.1 °C 7.2 °C 1013.8 hPa South 22.5 km/h 27.4 km/h 94 % 0 mm 72.00 W/m2
13:16 8.1 °C 7.2 °C 1013.8 hPa SSE 9.7 km/h 9.7 km/h 94 % 0 mm 51.00 W/m2
13:21 8.1 °C 7.2 °C 1013.8 hPa SSE 12.9 km/h 14.5 km/h 94 % 0 mm 67.00 W/m2
13:26 8.1 °C 7.2 °C 1013.8 hPa South 14.5 km/h 30.6 km/h 94 % 0 mm 105.00 W/m2
13:31 8.1 °C 7.2 °C 1013.8 hPa SSE 11.3 km/h 30.6 km/h 94 % 0 mm 51.00 W/m2
13:36 8.1 °C 7.2 °C 1013.8 hPa South 12.9 km/h 20.9 km/h 94 % 0 mm 56.00 W/m2
13:41 8.2 °C 7.3 °C 1013.8 hPa South 11.3 km/h 27.4 km/h 94 % 0 mm 88.00 W/m2
13:46 8.2 °C 7.5 °C 1013.4 hPa South 14.5 km/h 24.1 km/h 95 % 0 mm 60.00 W/m2
13:51 8.3 °C 7.5 °C 1013.8 hPa SE 6.4 km/h 25.7 km/h 95 % 0 mm 35.00 W/m2
13:56 8.3 °C 7.5 °C 1013.4 hPa SSW 11.3 km/h 17.7 km/h 95 % 0 mm 42.00 W/m2
14:01 8.3 °C 7.5 °C 1013.4 hPa SSE 17.7 km/h 17.7 km/h 95 % 0 mm 32.00 W/m2
14:06 8.3 °C 7.5 °C 1013.4 hPa South 25.7 km/h 29 km/h 95 % 0 mm 23.00 W/m2
14:11 8.3 °C 7.5 °C 1013.4 hPa South 17.7 km/h 30.6 km/h 95 % 4.57 mm 47.00 W/m2
14:16 8.3 °C 7.5 °C 1013.4 hPa SW 29 km/h 29 km/h 95 % 3.81 mm 23.00 W/m2
14:21 8.2 °C 7.5 °C 1013.4 hPa SSW 17.7 km/h 37 km/h 95 % 2.29 mm 81.00 W/m2
14:26 8.2 °C 7.3 °C 1013.4 hPa SSW 20.9 km/h 20.9 km/h 94 % 1.27 mm 58.00 W/m2
14:31 8.1 °C 7.2 °C 1013.4 hPa SSW 12.9 km/h 12.9 km/h 94 % 1.02 mm 62.00 W/m2
14:36 8.1 °C 7.2 °C 1013.4 hPa South 9.7 km/h 24.1 km/h 94 % 0 mm 53.00 W/m2
14:41 8.1 °C 7.2 °C 1013.4 hPa Calm   27.4 km/h 94 % 0 mm 51.00 W/m2
14:46 8.1 °C 7.2 °C 1013.4 hPa South 9.7 km/h 11.3 km/h 94 % 0 mm 26.00 W/m2
14:51 8.1 °C 7.2 °C 1013.8 hPa SW 3.2 km/h 17.7 km/h 94 % 5.08 mm 21.00 W/m2
14:56 8.2 °C 7.3 °C 1013.4 hPa South 12.9 km/h 20.9 km/h 94 % 3.3 mm 33.00 W/m2
15:01 8.2 °C 7.3 °C 1013.4 hPa South 14.5 km/h 22.5 km/h 94 % 2.03 mm 12.00 W/m2
15:06 8.2 °C 7.5 °C 1013.8 hPa SSW 19.3 km/h 30.6 km/h 95 % 2.03 mm 26.00 W/m2
15:11 8.3 °C 7.5 °C 1013.8 hPa SSW 8 km/h 24.1 km/h 95 % 5.08 mm 16.00 W/m2
15:16 8.3 °C 7.6 °C 1013.4 hPa Calm   22.5 km/h 95 % 4.32 mm 16.00 W/m2
15:21 8.3 °C 7.6 °C 1013.4 hPa SW 6.4 km/h 17.7 km/h 95 % 4.83 mm 42.00 W/m2
15:26 8.3 °C 7.4 °C 1013.4 hPa WSW 1.6 km/h 17.7 km/h 94 % 10.92 mm 35.00 W/m2
15:31 8.4 °C 7.5 °C 1013.8 hPa West 9.7 km/h 22.5 km/h 94 % 4.57 mm 30.00 W/m2
15:36 8.3 °C 7.6 °C 1013.8 hPa West 14.5 km/h 14.5 km/h 95 % 2.54 mm 46.00 W/m2
15:41 8.3 °C 7.6 °C 1013.8 hPa SW 24.1 km/h 33.8 km/h 95 % 2.29 mm 69.00 W/m2
15:46 8.4 °C 7.5 °C 1014.1 hPa SSW 14.5 km/h 25.7 km/h 94 % 1.27 mm 23.00 W/m2
15:51 8.3 °C 7.6 °C 1013.8 hPa SW 20.9 km/h 30.6 km/h 95 % 0 mm 7.00 W/m2
15:56 8.3 °C 7.6 °C 1013.8 hPa SSW 9.7 km/h 24.1 km/h 95 % 0 mm 21.00 W/m2
16:01 8.4 °C 7.5 °C 1013.8 hPa South 8 km/h 8 km/h 94 % 0 mm 9.00 W/m2
16:06 8.4 °C 7.5 °C 1013.8 hPa South 11.3 km/h 11.3 km/h 94 % 2.03 mm 5.00 W/m2
16:11 8.4 °C 7.5 °C 1013.8 hPa SW 16.1 km/h 35.4 km/h 94 % 3.56 mm 11.00 W/m2
16:16 8.4 °C 7.6 °C 1013.8 hPa SSE 16.1 km/h 27.4 km/h 95 % 3.05 mm 9.00 W/m2
16:21 8.3 °C 7.6 °C 1014.1 hPa WSW 14.5 km/h 14.5 km/h 95 % 1.78 mm 9.00 W/m2
16:26 8.3 °C 7.5 °C 1014.1 hPa WSW 12.9 km/h 14.5 km/h 95 % 1.78 mm 7.00 W/m2
16:31 8.3 °C 7.5 °C 1014.1 hPa South 20.9 km/h 43.5 km/h 95 % 4.57 mm 12.00 W/m2
16:36 8.3 °C 7.5 °C 1014.4 hPa Calm   35.4 km/h 95 % 4.83 mm 12.00 W/m2
16:41 8.3 °C 7.5 °C 1014.4 hPa SE 16.1 km/h 25.7 km/h 95 % 9.4 mm 0.00 W/m2
16:46 8.3 °C 7.5 °C 1014.4 hPa South 12.9 km/h 19.3 km/h 95 % 6.6 mm 7.00 W/m2
16:51 8.3 °C 7.5 °C 1014.4 hPa SSW 16.1 km/h 19.3 km/h 95 % 11.68 mm 9.00 W/m2
16:56 8.2 °C 7.5 °C 1014.4 hPa South 24.1 km/h 38.6 km/h 95 % 4.32 mm 14.00 W/m2
17:01 8.2 °C 7.3 °C 1014.4 hPa South 17.7 km/h 38.6 km/h 94 % 6.86 mm 0.00 W/m2
17:06 8.2 °C 7.3 °C 1014.8 hPa WSW 9.7 km/h 41.8 km/h 94 % 2.29 mm 5.00 W/m2
17:11 8.2 °C 7.3 °C 1014.8 hPa Calm   32.2 km/h 94 % 8.64 mm 7.00 W/m2
17:16 8.2 °C 7.3 °C 1014.8 hPa SW 9.7 km/h 37 km/h 94 % 2.29 mm 0.00 W/m2
17:21 8.2 °C 7.3 °C 1015.1 hPa SSW 3.2 km/h 3.2 km/h 94 % 7.11 mm 0.00 W/m2
17:26 8.2 °C 7.3 °C 1015.1 hPa South 8 km/h 8 km/h 94 % 2.03 mm 0.00 W/m2
17:31 8.2 °C 7.3 °C 1015.1 hPa SW 11.3 km/h 19.3 km/h 94 % 1.27 mm 0.00 W/m2
17:36 8.2 °C 7.3 °C 1015.1 hPa South 16.1 km/h 20.9 km/h 94 % 7.37 mm 0.00 W/m2
17:41 8.2 °C 7.3 °C 1015.5 hPa South 17.7 km/h 17.7 km/h 94 % 2.03 mm 0.00 W/m2
17:46 8.2 °C 7.3 °C 1015.5 hPa SW 17.7 km/h 17.7 km/h 94 % 1.27 mm 0.00 W/m2
17:51 8.2 °C 7.3 °C 1015.5 hPa SW 20.9 km/h 20.9 km/h 94 % 0 mm 0.00 W/m2
17:56 8.2 °C 7.3 °C 1015.5 hPa South 17.7 km/h 33.8 km/h 94 % 0 mm 0.00 W/m2
18:01 8.1 °C 7.2 °C 1015.5 hPa SSW 20.9 km/h 29 km/h 94 % 0 mm 0.00 W/m2
18:06 8.1 °C 7.2 °C 1015.5 hPa SSE 9.7 km/h 32.2 km/h 94 % 0 mm 0.00 W/m2
18:11 8.1 °C 7.2 °C 1015.5 hPa SSW 8 km/h 32.2 km/h 94 % 14.73 mm 0.00 W/m2
18:16 8.1 °C 7.3 °C 1015.8 hPa South 9.7 km/h 24.1 km/h 95 % 3.81 mm 0.00 W/m2
18:21 8.1 °C 7.3 °C 1015.8 hPa SSW 14.5 km/h 35.4 km/h 95 % 2.03 mm 0.00 W/m2
18:26 8.1 °C 7.3 °C 1015.8 hPa South 20.9 km/h 32.2 km/h 95 % 2.03 mm 0.00 W/m2
18:31 8.1 °C 7.3 °C 1015.8 hPa SSE 1.6 km/h 35.4 km/h 95 % 1.27 mm 0.00 W/m2
18:36 8.1 °C 7.3 °C 1015.8 hPa SSW 8 km/h 37 km/h 95 % 1.02 mm 0.00 W/m2
18:41 8.1 °C 7.3 °C 1015.8 hPa South 9.7 km/h 37 km/h 95 % 3.3 mm 0.00 W/m2
18:46 8.1 °C 7.3 °C 1015.8 hPa South 22.5 km/h 27.4 km/h 95 % 5.08 mm 0.00 W/m2
18:51 8.1 °C 7.3 °C 1015.8 hPa SSE 11.3 km/h 29 km/h 95 % 2.03 mm 0.00 W/m2
18:56 8.1 °C 7.3 °C 1015.8 hPa South 6.4 km/h 35.4 km/h 95 % 10.16 mm 0.00 W/m2
19:01 8.1 °C 7.3 °C 1015.8 hPa SSW 12.9 km/h 30.6 km/h 95 % 9.65 mm 0.00 W/m2
19:06 8.1 °C 7.3 °C 1015.8 hPa SSE 14.5 km/h 37 km/h 95 % 3.56 mm 0.00 W/m2
19:11 8.1 °C 7.3 °C 1016.1 hPa SW 16.1 km/h 33.8 km/h 95 % 2.03 mm 0.00 W/m2
19:16 8.1 °C 7.3 °C 1016.1 hPa SSW 17.7 km/h 37 km/h 95 % 8.64 mm 0.00 W/m2
19:21 8.1 °C 7.3 °C 1016.1 hPa South 20.9 km/h 33.8 km/h 95 % 3.05 mm 0.00 W/m2
19:26 8.1 °C 7.3 °C 1016.1 hPa SSW 24.1 km/h 29 km/h 95 % 2.29 mm 0.00 W/m2
19:31 8.1 °C 7.3 °C 1016.5 hPa SSW 19.3 km/h 33.8 km/h 95 % 4.32 mm 0.00 W/m2
19:36 8.1 °C 7.3 °C 1016.5 hPa SSW 6.4 km/h 30.6 km/h 95 % 4.06 mm 0.00 W/m2
19:41 8.1 °C 7.3 °C 1016.5 hPa SSE 11.3 km/h 33.8 km/h 95 % 2.03 mm 0.00 W/m2
19:46 8.1 °C 7.3 °C 1016.5 hPa SSE 16.1 km/h 29 km/h 95 % 1.78 mm 0.00 W/m2
19:51 8.1 °C 7.3 °C 1016.8 hPa SSW 8 km/h 38.6 km/h 95 % 2.03 mm 0.00 W/m2
19:56 8.1 °C 7.3 °C 1016.5 hPa South 27.4 km/h 38.6 km/h 95 % 2.29 mm 0.00 W/m2
20:01 8.1 °C 7.3 °C 1016.8 hPa SW 19.3 km/h 37 km/h 95 % 2.29 mm 0.00 W/m2
20:06 8.1 °C 7.3 °C 1016.8 hPa SSW 27.4 km/h 40.2 km/h 95 % 1.52 mm 0.00 W/m2
20:11 8 °C 7.2 °C 1016.8 hPa SSE 25.7 km/h 45.1 km/h 95 % 1.02 mm 0.00 W/m2
20:16 8.1 °C 7.3 °C 1017.2 hPa Calm     95 % 0 mm 0.00 W/m2
20:21 8.1 °C 7.3 °C 1017.2 hPa South 8 km/h 8 km/h 95 % 0 mm 0.00 W/m2
20:26 8.1 °C 7.3 °C 1017.2 hPa SSW 30.6 km/h 30.6 km/h 95 % 0 mm 0.00 W/m2
20:31 8.1 °C 7.3 °C 1017.5 hPa WSW 4.8 km/h 6.4 km/h 95 % 0 mm 0.00 W/m2
20:36 8.1 °C 7.3 °C 1017.5 hPa South 37 km/h 38.6 km/h 95 % 0 mm 0.00 W/m2
20:41 8.1 °C 7.3 °C 1017.5 hPa South 22.5 km/h 38.6 km/h 95 % 0 mm 0.00 W/m2
20:46 8.1 °C 7.3 °C 1017.5 hPa SW 9.7 km/h 32.2 km/h 95 % 0 mm 0.00 W/m2
20:51 8.1 °C 7.3 °C 1017.8 hPa South 4.8 km/h 29 km/h 95 % 0 mm 0.00 W/m2
20:56 8.1 °C 7.3 °C 1017.8 hPa SSE 16.1 km/h 30.6 km/h 95 % 0 mm 0.00 W/m2
21:01 8.1 °C 7.3 °C 1017.8 hPa SSW 14.5 km/h 14.5 km/h 95 % 0 mm 0.00 W/m2
21:06 8.1 °C 7.3 °C 1017.8 hPa SW 14.5 km/h 22.5 km/h 95 % 0 mm 0.00 W/m2
21:11 8.1 °C 7.3 °C 1018.2 hPa South 22.5 km/h 43.5 km/h 95 % 0 mm 0.00 W/m2
21:16 8.1 °C 7.3 °C 1018.2 hPa SSW 6.4 km/h 24.1 km/h 95 % 0 mm 0.00 W/m2
21:21 8.1 °C 7.3 °C 1018.2 hPa SSE 25.7 km/h 30.6 km/h 95 % 0 mm 0.00 W/m2
21:26 8.1 °C 7.3 °C 1018.2 hPa SW 6.4 km/h 29 km/h 95 % 0 mm 0.00 W/m2
21:31 8.1 °C 7.3 °C 1018.2 hPa SSE 17.7 km/h 24.1 km/h 95 % 0 mm 0.00 W/m2
21:36 8.1 °C 7.3 °C 1018.2 hPa South 17.7 km/h 32.2 km/h 95 % 0 mm 0.00 W/m2
21:41 8.1 °C 7.3 °C 1018.5 hPa SSW 17.7 km/h 19.3 km/h 95 % 0 mm 0.00 W/m2
21:46 8.1 °C 7.3 °C 1018.5 hPa SSW 16.1 km/h 27.4 km/h 95 % 0 mm 0.00 W/m2
21:51 8 °C 7.2 °C 1018.5 hPa South 16.1 km/h 32.2 km/h 95 % 0 mm 0.00 W/m2
21:56 8 °C 7.2 °C 1018.5 hPa SSW 6.4 km/h 27.4 km/h 95 % 0 mm 0.00 W/m2
22:01 8 °C 7.2 °C 1018.5 hPa South 24.1 km/h 27.4 km/h 95 % 0 mm 0.00 W/m2
22:06 8 °C 7.2 °C 1018.5 hPa SSW 12.9 km/h 33.8 km/h 95 % 0 mm 0.00 W/m2
22:11 8 °C 7.2 °C 1018.5 hPa SSW 16.1 km/h 29 km/h 95 % 0 mm 0.00 W/m2
22:16 8 °C 7.2 °C 1018.5 hPa SSW 9.7 km/h 9.7 km/h 95 % 0 mm 0.00 W/m2
22:21 7.9 °C 7.2 °C 1018.8 hPa SSW 16.1 km/h 24.1 km/h 95 % 0 mm 0.00 W/m2
22:26 7.9 °C 7.2 °C 1018.5 hPa South 16.1 km/h 27.4 km/h 95 % 0 mm 0.00 W/m2
22:31 7.9 °C 7.2 °C 1018.8 hPa SSW 9.7 km/h 29 km/h 95 % 0 mm 0.00 W/m2
22:36 7.9 °C 7.2 °C 1018.8 hPa SSE 16.1 km/h 22.5 km/h 95 % 0 mm 0.00 W/m2
22:41 7.9 °C 7.2 °C 1018.8 hPa SSW 4.8 km/h 30.6 km/h 95 % 0 mm 0.00 W/m2
22:46 7.9 °C 7.2 °C 1019.2 hPa SSE 17.7 km/h 29 km/h 95 % 0 mm 0.00 W/m2
22:51 7.9 °C 7.1 °C 1019.2 hPa South 16.1 km/h 25.7 km/h 95 % 0 mm 0.00 W/m2
22:56 7.9 °C 7.1 °C 1019.2 hPa SSW 16.1 km/h 27.4 km/h 95 % 0 mm 0.00 W/m2
23:01 7.8 °C 7.1 °C 1019.2 hPa South 12.9 km/h 25.7 km/h 95 % 0 mm 0.00 W/m2
23:06 7.8 °C 7.1 °C 1019.2 hPa Calm   20.9 km/h 95 % 0 mm 0.00 W/m2
23:11 7.8 °C 7.1 °C 1019.2 hPa South 9.7 km/h 24.1 km/h 95 % 0 mm 0.00 W/m2
23:16 7.8 °C 7.1 °C 1019.2 hPa South 17.7 km/h 25.7 km/h 95 % 0 mm 0.00 W/m2
23:21 7.8 °C 7.1 °C 1019.2 hPa South 14.5 km/h 14.5 km/h 95 % 0 mm 0.00 W/m2
23:26 7.8 °C 7.1 °C 1019.2 hPa SSW 14.5 km/h 22.5 km/h 95 % 0 mm 0.00 W/m2
23:31 7.8 °C 7.1 °C 1019.2 hPa South 12.9 km/h 27.4 km/h 95 % 0 mm 0.00 W/m2
23:36 7.8 °C 7.1 °C 1019.2 hPa SSW 16.1 km/h 24.1 km/h 95 % 0 mm 0.00 W/m2
23:41 7.8 °C 7.1 °C 1019.2 hPa SE 6.4 km/h 24.1 km/h 95 % 0 mm 0.00 W/m2
23:46 7.8 °C 7.1 °C 1019.2 hPa SSE 11.3 km/h 22.5 km/h 95 % 0 mm 0.00 W/m2
23:51 7.8 °C 7.1 °C 1019.2 hPa SSW 19.3 km/h 22.5 km/h 95 % 0 mm 0.00 W/m2
23:56 7.8 °C 7.1 °C 1019.5 hPa South 11.3 km/h 20.9 km/h 95 % 0 mm 0.00 W/m2
Juneau County Weather
Compliments of Weather Underground - 4.5 mb
 WU-history PHP script courtesy of   Juneau County Weather.
powered by Cumulus v1.9.3 (1059)
Ambient Weather VWS v14.00
Top Contact Website Map Copyright © 2007 - 2018 Foresthillweather.com Never base important decisions on this or any weather information obtained from the Internet